Flag Weather past 2 weeks in Timișoara, Romania

Now
43 °F

Clear.


Feels Like: 43 °F
Forecast: 28 / 44 °F
Wind: No wind

Location: Timisoara Airport

Current Time: Nov 24, 2014 at 5:20:13 PM

Latest Report: Nov 24, 2014 at 5:00 PM


Visibility: 10 mi

Pressure: 30.33 "Hg

Humidity: 71%

Dew point: 34 °F

Location of TimișoaraLocation

Historic Weather in Timișoara — Graph

°F

Timișoara temperature yesterday

Maximum temperature yesterday: 48 °F (at 11:00 AM)
Minimum temperature yesterday: 37 °F (at 6:30 AM)
Average temperature yesterday: 42 °F

Past Weeks' High & Low Weather Summary

 TemperatureHumidityPressure
High66 °F (Nov 11, 1:30 PM)100% (Nov 9, 7:00 PM)30.42 "Hg (Nov 9, 7:00 PM)
Low37 °F (Nov 23, 6:30 AM)49% (Nov 13, 3:00 PM)29.80 "Hg (Nov 13, 4:30 AM)
Average47 °F88%30.06 "Hg
* Reported Nov 9 4:00 PM — Nov 24 4:00 PM, Timișoara, Weather by CustomWeather, © 2014

Note: Actual official high and low records may vary slightly from our data, if they occured in-between our weather recording intervals... More about our weather records

Advertising

Timișoara weather history for previous 24 hours

 ConditionsComfort  
Time TempWeatherWind HumidityBarometerVisibility
4:00 PM
Nov 24
46 °FSunny.No wind62%30.33 "Hg10 mi
3:30 PM46 °FSunny.1 mph62%30.33 "Hg10 mi
3:00 PM45 °FPassing clouds.3 mph76%30.33 "HgN/A
2:30 PM46 °FSunny.2 mph66%30.33 "Hg10 mi
2:00 PM46 °FSunny.1 mph71%30.33 "Hg10 mi
1:30 PM46 °FSunny.2 mph71%30.33 "Hg10 mi
1:00 PM46 °FPassing clouds.1 mph76%30.33 "HgN/A
12:30 PM46 °FPassing clouds.2 mph71%30.33 "HgN/A
12:00 PM46 °FPassing clouds.1 mph76%30.36 "HgN/A
11:30 AM45 °FPassing clouds.2 mph76%30.36 "HgN/A
11:00 AM45 °FPassing clouds.3 mph81%30.36 "HgN/A
10:30 AM43 °FScattered clouds.5 mph87%30.36 "HgN/A
10:00 AM41 °FPartly sunny.3 mph93%30.36 "HgN/A
9:30 AM39 °FPartly sunny.1 mph100%30.36 "HgN/A
9:00 AM39 °FPartly sunny.1 mph93%30.36 "HgN/A
8:30 AM39 °FPartly sunny.2 mph93%30.36 "HgN/A
8:00 AM39 °FFog.1 mph93%30.36 "Hg5 mi
7:30 AM39 °FPassing clouds.1 mph93%30.36 "Hg4 mi
7:00 AM39 °FFog.No wind93%30.36 "Hg3 mi
6:30 AM39 °FFog.1 mph93%30.36 "Hg3 mi
6:00 AM39 °FFog.1 mph93%30.36 "Hg3 mi
5:00 AM39 °FFog.1 mph100%30.36 "Hg3 mi
4:30 AM39 °FOvercast.No wind100%30.36 "Hg4 mi
4:00 AM39 °FOvercast.1 mph100%30.36 "Hg4 mi
3:30 AM39 °FOvercast.2 mph100%30.36 "Hg5 mi
3:00 AM39 °FOvercast.3 mph100%30.36 "Hg4 mi
2:30 AM41 °FOvercast.2 mph87%30.39 "Hg4 mi
1:30 AM41 °FOvercast.No wind87%30.36 "Hg5 mi
1:00 AM41 °FOvercast.No wind87%30.36 "Hg5 mi
12:30 AM41 °FOvercast.2 mph93%30.39 "Hg5 mi
12:00 AM41 °FOvercast.5 mph93%30.39 "Hg5 mi
11:30 PM
Nov 23
41 °FOvercast.3 mph93%30.39 "Hg5 mi
10:30 PM39 °FOvercast.2 mph93%30.39 "HgN/A
10:00 PM39 °FPassing clouds.1 mph93%30.39 "HgN/A
9:30 PM37 °FPassing clouds.1 mph93%30.39 "HgN/A
9:00 PM37 °FPassing clouds.3 mph93%30.39 "HgN/A
8:30 PM39 °FPassing clouds.3 mph87%30.39 "HgN/A
8:00 PM41 °FPassing clouds.2 mph76%30.39 "HgN/A
7:30 PM41 °FOvercast.1 mph81%30.39 "HgN/A
7:00 PM43 °FOvercast.3 mph76%30.39 "HgN/A
6:30 PM43 °FOvercast.3 mph71%30.39 "HgN/A
6:00 PM43 °FOvercast.3 mph71%30.39 "HgN/A
5:30 PM43 °FOvercast.5 mph71%30.39 "HgN/A
5:00 PM45 °FOvercast.6 mph66%30.39 "HgN/A
Weather by CustomWeather, © 2014

See weather overviewHow to use our weather pages